GFSSE_sfc_temp_159.txt.gz
Temp
76 78 80 80 79 79 79 79 79 79 79 79 79 79 79 79 79 79 79 79 79 80 80 80 80 80 80 80 79 79 79 79 80 80 80 79 79 79 79 79 79 77 78
79 81 79 79 79 79 79 79 79 78 78 79 79 79 79 79 79 79 79 79 79 80 80 80 80 80 80 80 80 79 79 79 79 80 80 79 79 79 79 79 78 76 77
79 78 79 79 79 79 79 78 78 78 78 78 79 79 79 79 79 79 79 79 80 80 80 80 80 80 80 80 79 79 79 79 79 79 79 75 74 79 79 79 79 78 77
79 77 78 79 79 79 78 78 78 78 78 78 78 79 78 78 79 79 79 79 80 80 80 80 80 80 80 79 79 79 79 79 79 79 76 77 78 80 80 79 79 78 77
79 77 77 79 78 79 78 78 78 78 78 78 78 79 79 78 78 78 78 79 80 80 80 80 80 79 79 79 79 79 79 79 79 79 75 74 74 80 80 79 79 78 77
79 79 79 78 78 78 79 78 78 78 78 78 79 79 79 78 78 78 78 79 80 80 80 80 79 79 79 79 78 78 78 78 79 74 75 76 75 79 80 80 79 79 78
78 79 78 78 78 78 79 78 78 78 78 78 78 78 78 78 77 77 78 78 79 80 79 79 79 78 78 78 78 78 78 79 76 73 74 75 74 77 79 79 79 79 78
77 79 77 78 78 78 78 78 78 77 77 77 78 78 78 77 77 77 78 78 79 79 79 79 78 77 77 77 77 77 77 79 77 72 72 73 75 77 79 79 78 78 78
79 79 75 76 77 78 78 78 77 77 77 77 77 77 77 77 77 77 77 77 78 77 77 78 77 77 77 77 77 77 77 78 73 70 74 73 76 78 80 79 79 78 78
79 77 75 74 76 75 75 78 77 77 77 77 77 77 77 77 77 77 76 77 77 77 77 77 77 77 77 76 76 76 77 78 70 69 70 71 76 79 80 79 79 78 78
77 78 75 75 77 73 73 76 77 78 77 77 77 77 75 72 73 74 75 77 77 77 77 77 77 77 76 76 76 76 77 70 69 70 71 75 77 79 80 79 79 78 78
74 76 79 76 77 74 77 74 73 75 73 72 72 72 71 70 70 74 75 77 77 77 77 77 77 77 76 70 69 73 68 69 69 71 72 77 77 80 80 80 79 79 78
74 75 77 78 77 73 74 73 73 72 72 71 71 71 70 70 69 70 69 70 70 74 71 72 70 69 69 68 69 67 69 69 70 72 75 77 77 79 81 80 79 79 78
70 73 75 75 74 71 73 74 72 71 70 69 70 70 68 67 67 67 68 69 68 69 69 68 68 68 68 69 69 70 70 71 73 73 72 77 77 79 81 80 79 79 78
70 70 70 71 70 70 73 70 69 69 69 69 68 69 68 67 66 68 69 69 69 68 68 68 68 68 69 70 71 71 72 72 73 75 74 77 77 77 79 80 81 80 79
73 71 70 70 68 69 68 68 68 68 69 68 68 69 69 67 66 67 69 70 69 70 70 69 69 69 69 69 71 72 73 73 74 74 74 71 75 75 75 77 79 80 80
70 70 70 71 71 69 68 68 68 70 70 69 71 70 71 69 68 68 69 70 70 70 70 70 70 69 68 70 69 71 72 73 73 73 72 70 70 72 72 73 74 73 77
69 68 70 76 71 70 70 70 71 71 71 73 72 71 73 72 71 70 71 71 72 71 70 70 69 68 68 68 68 69 69 69 70 71 70 69 67 69 70 69 74 73 77
66 67 68 70 71 73 73 72 73 74 73 74 72 72 73 74 74 72 72 72 73 71 70 70 69 68 67 67 69 70 68 68 69 71 69 70 68 67 67 71 73 74 76
67 67 67 67 66 67 71 74 74 74 73 73 74 75 75 74 76 74 73 73 72 70 69 68 67 67 65 64 70 70 66 67 67 66 67 69 68 68 68 68 70 72 74
68 67 67 68 66 65 66 69 70 71 71 74 75 75 75 75 75 72 72 72 70 69 68 68 67 65 64 63 62 64 64 66 65 65 65 66 68 68 70 70 70 69 69
68 68 68 66 66 65 67 69 72 71 71 72 72 74 74 75 75 74 71 70 69 68 67 67 66 65 64 63 61 59 58 62 63 65 66 67 66 67 68 68 67 67 68
65 66 65 65 65 67 67 68 71 70 70 70 70 70 71 73 72 70 69 67 66 67 67 66 66 65 63 64 64 62 60 59 62 65 66 65 65 65 65 66 67 66 67
66 65 63 65 64 65 65 65 70 68 67 68 68 67 67 69 69 68 68 67 65 64 64 64 64 64 65 62 65 65 64 63 60 59 62 64 63 63 63 63 62 65 66
66 62 64 65 65 66 68 70 68 68 68 68 66 65 65 64 66 66 65 64 62 61 61 60 58 57 58 57 57 57 59 58 57 53 53 54 59 57 59 62 62 62 62
66 65 65 66 68 69 68 68 68 67 66 64 63 61 60 59 59 60 61 59 58 56 55 55 54 54 53 53 53 53 51 51 50 49 47 49 49 51 58 57 58 58 58

GFSSE_sfc_temp_162.txt.gz
Temp
76 78 80 80 79 79 80 80 79 79 79 79 79 79 79 79 79 79 79 79 79 80 80 80 80 80 80 80 79 79 79 79 80 80 79 79 79 79 79 79 79 78 78
78 78 80 79 79 79 79 79 79 78 79 79 79 79 79 79 79 79 79 79 79 80 80 80 80 80 80 80 80 79 79 79 79 80 80 79 79 79 79 79 78 78 78
77 80 79 79 79 79 79 78 78 78 78 78 79 79 79 79 79 79 79 79 80 80 80 80 80 80 80 80 80 79 79 79 79 79 79 79 78 79 79 79 79 78 77
79 79 77 79 79 79 78 78 78 78 78 78 78 79 79 79 79 79 79 79 80 80 80 80 80 80 80 80 79 79 79 79 79 80 79 79 79 80 80 79 79 79 78
79 77 77 79 79 79 78 78 78 78 78 78 79 79 79 78 78 78 78 79 80 80 80 80 80 79 79 79 79 79 79 79 79 79 78 78 77 80 80 80 79 79 78
77 78 78 78 78 78 79 78 78 78 78 78 79 79 79 78 78 78 78 79 80 80 80 79 79 79 79 79 78 78 78 79 79 78 77 77 78 78 80 80 80 79 78
77 78 78 78 78 79 79 78 78 78 78 78 78 79 78 78 78 78 78 79 79 80 79 79 78 78 78 78 78 78 78 79 79 77 77 76 77 76 79 80 79 79 78
77 79 77 78 78 78 78 78 78 77 77 78 78 78 78 77 77 77 78 78 79 79 79 78 78 77 77 77 77 77 77 78 79 75 75 76 75 77 79 79 79 79 78
78 79 77 76 77 78 78 78 77 77 77 77 77 77 77 77 77 77 77 77 78 77 77 77 77 77 77 77 77 77 77 78 78 74 75 76 75 77 79 79 79 79 78
77 79 76 75 75 74 75 78 77 77 77 77 77 77 77 77 77 77 76 77 77 77 77 77 77 77 76 76 76 76 77 78 75 74 75 75 76 78 80 80 79 79 78
76 76 76 75 74 73 73 76 77 78 77 77 77 77 75 73 74 76 76 76 77 77 77 77 77 77 76 76 76 76 77 74 73 74 76 75 77 79 80 79 79 79 78
74 75 75 74 73 75 76 73 73 75 73 73 73 73 72 71 72 75 75 77 77 77 77 77 77 77 77 73 73 74 72 72 73 74 76 77 77 79 80 80 79 79 78
76 77 77 74 75 74 73 72 72 72 72 72 72 71 71 71 71 72 71 72 72 74 74 74 73 73 72 72 72 72 73 73 74 75 77 77 77 79 80 80 80 79 78
73 77 78 78 77 73 72 71 72 72 71 70 71 71 69 69 69 69 70 71 71 72 71 72 72 71 71 71 72 73 74 74 75 75 76 77 77 77 78 78 77 76 74
72 74 76 76 74 73 71 71 72 70 70 70 70 70 70 68 68 68 69 71 71 71 71 71 71 71 71 72 73 73 74 75 75 76 76 76 75 75 76 76 76 75 74
72 73 75 74 73 72 71 70 69 70 70 70 69 70 70 68 68 68 68 70 71 72 72 71 71 71 72 72 72 73 74 74 75 75 76 74 74 74 75 75 75 76 76
69 70 71 71 69 70 69 69 69 69 70 69 69 70 71 70 68 68 68 69 71 72 72 72 72 72 70 72 71 73 74 74 75 75 75 74 73 73 73 75 76 75 75
68 68 69 74 69 68 68 67 68 68 69 70 70 71 72 72 71 70 70 71 73 72 72 72 72 71 70 70 70 72 72 72 74 74 73 73 71 71 71 74 75 77 76
69 69 69 70 69 70 70 70 70 70 70 71 72 72 72 73 74 72 72 73 74 73 73 72 72 70 69 70 70 72 72 70 72 74 72 72 72 71 70 71 73 74 74
70 70 69 68 67 68 69 71 71 71 72 73 73 73 74 73 75 73 73 73 73 72 72 71 70 70 68 67 70 71 68 68 70 70 70 71 71 71 71 71 72 73 73
68 68 67 66 66 67 67 68 70 70 71 72 71 72 73 73 73 72 73 72 71 69 69 69 69 67 67 67 65 69 68 69 69 69 70 71 70 71 72 71 70 69 70
68 68 68 66 65 67 68 68 70 71 71 71 71 71 71 71 71 71 70 68 68 68 68 68 67 66 66 66 64 63 61 65 67 69 70 70 67 68 68 69 67 67 68
68 67 64 65 66 68 68 67 68 70 70 69 69 68 68 70 69 69 68 68 67 67 65 64 65 66 64 66 66 63 61 60 62 67 68 65 62 65 64 63 64 66 66
64 64 64 65 64 65 66 66 67 67 64 68 66 66 65 67 67 66 65 64 64 63 61 61 62 61 64 59 63 62 65 61 56 55 63 64 61 61 61 62 61 63 63
64 63 64 63 64 65 67 68 69 68 67 66 65 62 61 61 63 64 62 60 59 59 58 56 56 56 56 57 56 55 57 57 56 52 51 54 58 59 60 60 60 60 60
63 62 63 64 65 68 68 68 68 67 64 62 60 58 57 56 57 59 59 57 56 55 55 54 54 54 54 54 54 52 52 51 51 50 49 49 49 54 58 60 60 60 59

GFSSE_sfc_temp_165.txt.gz
Temp
83 86 80 80 80 80 80 80 80 80 80 79 80 80 79 79 79 80 80 79 79 80 80 80 80 80 80 80 80 79 79 80 80 80 80 79 79 79 79 79 79 85 78
87 85 79 80 80 80 80 79 79 79 79 79 80 79 79 79 79 79 79 79 80 80 80 80 80 80 80 80 80 79 79 79 80 80 80 79 79 79 79 79 79 84 78
86 85 83 79 80 80 79 79 79 79 79 79 79 79 79 79 79 79 79 79 80 80 80 80 80 80 80 80 80 79 79 79 79 80 80 90 88 79 80 80 80 78 78
86 85 85 79 79 79 79 78 78 78 79 79 79 79 79 79 79 79 79 80 80 80 80 80 80 80 80 80 80 80 80 80 80 80 89 89 89 82 80 80 80 79 78
84 86 83 79 79 79 79 78 78 78 78 78 79 79 79 79 78 78 79 80 80 81 81 80 80 80 80 80 79 79 79 79 80 83 89 89 88 87 81 80 80 79 79
85 86 80 78 78 78 79 78 78 78 78 78 79 79 79 79 78 78 79 79 80 80 80 80 79 79 79 79 79 79 79 79 79 90 88 87 87 80 79 80 80 80 79
85 87 85 78 78 79 79 78 78 78 78 78 79 79 78 78 78 78 78 79 80 80 80 79 79 79 78 78 78 78 78 79 87 90 88 87 89 77 79 79 80 79 79
85 85 83 79 78 78 79 78 78 78 78 78 78 78 78 78 78 78 78 78 79 79 79 79 78 78 78 78 78 78 78 78 87 88 88 89 83 77 79 79 79 79 79
84 85 83 85 81 78 78 78 78 77 78 77 77 77 77 78 78 78 78 78 78 78 78 78 78 78 77 77 77 77 77 78 87 89 88 89 81 77 79 79 79 79 79
85 83 84 84 87 85 84 78 78 77 77 77 77 77 77 77 77 77 76 77 78 78 78 78 78 77 77 77 77 77 77 78 91 90 90 90 78 78 79 79 79 79 79
84 82 84 86 85 85 85 82 78 78 78 77 78 77 78 86 84 83 79 77 78 78 78 78 77 77 77 77 77 76 77 89 89 90 91 82 77 79 80 80 79 79 79
82 80 82 83 83 84 85 83 84 85 86 85 85 83 85 83 84 85 81 77 77 78 77 77 77 77 79 88 89 82 89 89 89 89 91 80 78 79 80 80 79 79 79
83 81 81 81 82 83 84 84 84 85 84 83 82 82 82 83 84 86 86 87 85 81 86 85 85 87 85 85 87 87 88 89 90 91 89 78 77 78 79 79 79 78 75
79 80 81 82 80 80 84 83 84 84 84 84 83 81 81 82 81 82 85 85 83 86 83 84 85 84 84 84 85 85 87 87 90 90 89 78 76 77 78 78 77 76 75
78 80 81 82 81 80 79 82 83 82 83 84 83 82 83 82 81 82 82 83 83 83 84 84 84 85 85 85 86 85 86 86 87 89 89 80 76 76 77 77 78 77 76
79 78 81 82 81 80 80 80 80 82 83 83 83 83 81 82 80 82 81 81 82 83 84 85 85 83 84 84 84 85 84 85 85 85 89 87 75 74 75 76 77 77 78
78 78 79 79 79 77 79 80 81 83 84 83 83 81 81 80 79 78 80 80 80 82 83 84 84 84 84 84 83 84 84 84 85 85 86 86 85 77 75 75 76 77 77
76 75 76 77 76 75 79 80 82 82 83 82 83 83 81 81 80 78 80 80 81 82 83 83 82 81 81 82 80 81 83 84 85 84 85 83 84 83 80 75 74 74 75
75 74 73 76 76 78 78 80 80 79 81 83 84 84 82 81 81 77 76 78 77 77 80 79 78 78 77 77 80 81 82 83 82 84 82 81 80 81 81 77 74 74 73
75 75 76 76 76 78 80 80 81 82 83 83 82 81 78 78 78 74 75 76 74 76 76 74 76 79 78 77 77 76 78 82 82 82 81 82 80 79 78 77 77 78 73
75 74 75 74 75 77 78 79 79 81 80 77 74 75 74 73 73 72 72 71 71 70 71 72 74 73 75 76 76 78 81 81 78 81 82 79 76 78 76 76 74 76 77
74 75 74 75 74 76 78 78 80 75 72 71 73 74 74 72 71 70 70 69 68 69 70 71 72 74 76 75 73 74 73 77 79 79 79 75 72 75 74 73 71 72 72
75 74 74 74 74 76 75 77 77 78 73 71 70 69 70 71 69 68 68 67 67 68 68 70 71 71 69 74 72 70 69 67 69 79 75 75 69 71 71 71 70 70 69
72 72 74 76 74 75 76 76 71 71 71 69 72 71 67 66 65 66 65 66 65 66 66 68 68 68 71 67 72 70 70 67 65 65 73 71 69 69 68 70 70 69 68
74 76 75 74 74 75 76 77 72 70 68 70 67 64 63 62 64 64 64 65 64 67 64 65 65 64 67 66 65 65 65 68 64 61 61 64 67 69 69 69 69 69 67
77 76 75 75 74 75 77 76 71 73 71 65 64 61 58 58 61 61 62 62 62 62 62 62 62 62 63 64 64 63 62 61 60 60 59 60 59 65 66 68 68 68 67

GFSSE_sfc_temp_168.txt.gz
Temp
97 93 80 80 80 81 81 81 80 80 80 79 79 80 79 79 80 80 80 80 80 81 81 81 81 81 80 80 80 80 80 80 80 80 80 80 79 79 79 79 79 90 79
98 92 80 80 80 81 81 81 80 80 79 79 80 80 79 79 80 80 80 80 80 81 81 81 81 81 81 80 80 80 80 80 80 80 81 80 81 80 80 80 80 86 78
95 91 88 80 80 80 80 80 79 79 79 79 80 79 79 79 79 79 79 80 81 81 81 81 81 81 81 81 80 80 80 80 80 80 81 92 96 81 80 80 80 80 79
94 90 92 79 80 80 79 79 79 79 79 79 79 79 79 79 79 79 80 80 81 81 81 81 81 81 81 81 80 80 80 81 81 81 92 97 97 81 81 81 80 80 79
92 94 90 79 79 79 79 79 79 79 79 79 79 79 79 79 79 79 79 80 81 81 81 81 81 80 80 80 80 80 80 80 80 84 96 96 94 88 82 81 81 79 79
97 96 82 79 79 79 79 79 79 79 79 79 79 79 79 79 79 79 79 80 81 81 81 81 80 80 80 80 79 79 79 79 80 97 96 93 92 81 80 80 80 80 80
96 96 89 79 79 79 79 79 79 79 79 79 79 79 79 79 79 79 79 80 80 81 80 80 79 79 79 79 79 79 79 79 89 97 96 94 95 80 80 80 80 79 79
94 93 90 80 79 79 79 79 78 78 78 78 79 79 79 78 79 79 79 79 80 79 80 79 79 79 79 79 79 78 79 79 90 96 95 96 87 80 80 79 79 79 79
93 92 90 90 84 79 78 78 78 78 78 78 78 78 78 78 78 79 79 79 79 79 79 79 79 79 78 78 78 78 78 79 89 96 96 97 81 80 79 79 79 79 79
94 95 92 90 93 90 88 78 78 78 78 77 78 78 78 78 78 78 78 78 79 79 79 79 79 78 78 77 77 77 78 79 92 98 98 99 81 79 80 79 79 79 79
94 94 95 94 93 95 93 85 79 79 78 78 79 78 79 94 90 86 81 79 79 79 79 78 78 78 77 77 78 78 78 95 98 99 99 84 80 79 80 80 80 79 79
92 93 95 96 93 94 92 87 90 89 90 90 91 88 94 91 92 91 84 79 78 78 78 78 78 78 78 96 97 82 95 98 97 98 99 81 79 79 80 80 79 79 79
93 94 95 91 91 93 95 93 93 93 92 91 89 89 90 92 91 94 97 95 94 83 94 90 92 95 93 93 95 95 96 96 98 98 94 80 79 79 80 80 80 80 78
91 89 93 91 89 91 94 93 93 94 93 92 91 88 88 90 89 90 95 94 92 94 90 92 94 92 91 92 93 93 94 95 97 97 95 81 78 78 78 80 79 79 78
88 89 91 91 88 88 88 90 92 92 93 93 91 89 93 93 90 91 91 92 91 91 91 92 93 92 91 92 94 93 93 92 93 94 95 83 78 76 77 78 78 78 78
86 84 88 88 85 87 87 88 88 90 91 92 92 92 88 90 88 92 91 91 90 90 90 91 90 89 90 90 91 91 90 91 92 92 94 94 78 76 76 76 77 77 77
85 83 84 86 86 85 86 86 89 91 93 92 93 88 88 87 86 86 91 90 89 87 88 90 89 89 88 87 87 91 91 92 92 91 91 93 91 77 77 76 75 75 76
86 82 83 87 84 82 86 88 90 91 92 92 92 91 88 88 87 87 90 86 83 85 82 82 78 81 80 82 85 88 91 90 91 89 90 89 89 88 80 76 75 76 75
84 83 81 81 80 81 85 88 88 85 90 91 91 91 86 88 87 86 86 82 81 82 79 78 79 78 78 81 82 84 87 89 89 91 87 86 85 85 84 79 75 75 75
84 82 81 82 81 83 86 87 89 89 90 89 83 84 85 85 85 84 82 77 78 78 79 76 74 76 78 79 81 82 87 89 89 88 87 88 84 83 83 79 78 81 75
82 80 81 80 80 83 86 88 88 88 86 81 84 83 83 84 82 82 83 77 75 75 73 71 74 75 77 77 77 85 88 87 84 84 86 84 81 81 80 79 78 77 78
81 80 80 79 80 83 86 88 88 86 82 81 82 81 81 80 79 79 80 73 72 77 74 71 70 71 76 79 77 80 77 83 81 84 84 83 77 80 79 78 75 74 75
82 81 80 80 80 84 84 84 81 81 81 81 81 81 78 77 77 76 74 73 70 72 68 70 74 74 76 80 77 74 73 72 74 84 80 80 75 77 77 77 75 75 73
82 84 82 81 81 82 84 84 81 83 82 83 84 76 74 75 75 72 72 73 70 73 69 71 71 71 71 74 77 76 73 71 68 68 77 78 78 76 74 76 75 75 73
84 83 83 82 82 82 83 84 83 83 85 82 76 71 70 72 73 73 73 71 70 74 68 68 67 68 73 72 71 72 72 76 71 68 67 71 76 78 77 76 75 75 73
83 77 78 78 78 80 83 82 82 81 80 73 73 73 74 73 71 72 70 70 70 70 69 70 69 68 68 69 72 71 71 69 68 68 67 68 68 73 76 76 74 73 72

GFSSE_sfc_temp_171.txt.gz
Temp
101 94 81 81 81 81 81 80 80 79 79 79 79 80 79 79 80 80 80 80 80 81 81 81 81 81 81 81 80 80 80 80 81 81 81 81 80 80 79 80 80 89 80
102 93 80 80 81 81 81 80 80 79 79 79 80 80 80 80 80 80 80 80 81 81 81 81 81 81 81 81 81 80 80 81 81 81 81 81 81 81 80 80 81 87 79
99 93 88 80 80 81 80 80 80 79 79 79 79 80 80 80 80 80 80 80 81 81 81 81 81 81 81 81 81 80 80 81 81 81 81 87 92 81 81 81 81 81 80
98 92 91 79 80 80 80 79 79 79 79 79 79 80 80 79 80 80 80 80 81 81 81 81 81 81 81 81 81 81 81 81 81 81 88 97 99 81 82 81 81 81 80
96 96 88 79 79 80 80 79 79 79 79 79 79 80 79 79 79 80 80 80 81 81 81 81 81 81 81 81 81 81 80 80 80 83 93 98 96 88 82 81 82 81 80
98 98 81 79 79 79 80 79 79 79 79 79 79 79 79 79 79 79 80 80 81 81 81 81 80 80 80 81 80 80 80 80 80 94 98 96 95 82 82 81 81 80 80
99 97 88 79 79 79 79 79 79 79 79 79 79 79 79 79 79 79 80 80 81 81 81 80 80 80 80 80 80 79 79 80 86 93 96 96 97 82 82 81 80 80 79
99 95 89 79 79 79 79 79 79 78 79 79 79 79 79 79 79 79 80 80 80 80 80 81 80 80 79 79 79 79 79 79 87 92 96 98 86 82 81 80 79 79 79
99 96 90 89 82 79 79 78 78 78 78 78 78 78 78 79 79 79 79 80 80 79 79 80 79 79 79 78 78 78 78 79 86 91 96 99 81 81 81 80 79 79 79
97 94 92 89 88 88 86 78 78 78 78 78 78 78 78 79 79 79 78 79 79 79 79 79 79 79 78 78 78 78 78 79 88 93 99 96 81 81 81 80 79 79 79
94 93 96 95 94 94 91 85 79 79 78 78 79 78 78 91 88 85 81 80 80 79 79 79 79 78 78 78 78 78 79 92 98 100 100 81 81 81 81 80 79 79 79
94 94 96 96 94 95 93 86 89 88 89 89 90 86 92 94 93 92 87 81 80 80 79 79 79 79 79 93 98 81 90 99 99 99 100 81 81 81 80 80 79 79 79
96 94 95 92 94 96 94 92 92 91 91 92 91 90 94 94 92 94 95 92 91 81 95 86 91 91 94 94 96 96 97 97 98 99 93 81 80 80 79 79 80 80 79
97 96 97 94 93 93 95 95 94 95 94 94 93 90 89 91 90 91 97 96 93 97 92 94 95 94 94 94 95 95 96 96 96 96 95 82 80 79 79 79 78 78 78
93 94 94 92 91 92 90 96 95 95 95 95 92 91 94 94 91 92 93 94 93 95 94 92 93 93 93 94 95 93 93 93 93 95 95 84 79 79 78 78 77 77 77
92 90 92 91 90 93 92 91 92 93 95 95 94 92 92 92 89 93 91 92 93 93 91 90 88 88 89 91 90 90 90 92 91 93 94 90 78 76 77 77 77 77 76
86 87 89 90 89 87 89 89 90 93 96 95 95 91 92 89 88 88 92 91 92 90 88 88 88 87 89 87 85 87 88 90 93 86 85 81 78 77 77 77 76 77 76
84 84 87 89 85 85 86 88 92 94 95 95 94 92 90 90 89 86 89 88 88 87 87 87 86 83 83 84 82 84 86 89 89 90 84 87 80 83 78 77 76 76 76
81 83 84 87 85 86 87 90 92 90 94 94 94 93 90 91 90 89 89 88 85 88 87 85 83 81 82 81 79 86 87 89 82 84 85 80 78 83 83 78 75 75 75
83 83 85 84 82 83 87 88 91 89 93 93 92 92 88 90 89 87 88 87 86 87 85 81 79 83 82 82 81 81 83 82 85 82 85 86 81 81 81 78 78 78 75
81 82 84 82 81 84 85 84 87 88 91 91 86 88 87 86 86 85 87 85 81 82 79 79 79 78 81 80 80 81 85 80 81 79 85 85 79 80 80 78 78 77 77
79 83 82 82 82 84 86 85 88 90 88 88 87 85 84 81 79 83 81 81 79 81 74 76 76 79 81 81 76 76 75 81 81 83 84 83 78 81 79 79 77 75 75
83 83 83 82 82 85 87 88 85 85 83 84 82 81 79 81 80 79 78 75 76 80 78 75 75 72 74 79 77 74 70 70 73 81 79 81 78 79 78 78 77 76 74
85 86 84 82 83 87 87 85 82 82 80 80 78 77 75 77 76 77 76 76 74 77 73 73 74 75 73 74 78 78 75 73 67 67 77 78 79 79 77 78 77 75 74
86 86 83 82 84 85 86 86 83 81 78 83 77 75 73 74 75 76 74 74 73 76 72 72 71 70 75 74 74 74 74 76 73 69 66 72 76 79 79 78 76 75 74
87 86 84 82 82 84 85 85 82 80 76 77 77 77 77 76 75 74 75 73 72 73 72 72 72 69 70 70 73 74 72 70 70 70 68 69 68 74 77 77 75 75 74

GFSSE_sfc_temp_174.txt.gz
Temp
91 84 81 81 81 80 80 80 79 79 79 79 79 79 79 79 80 80 80 80 80 81 81 81 81 80 80 80 80 80 80 81 81 82 81 81 81 80 80 80 80 85 80
92 86 80 80 80 80 80 80 79 79 79 79 79 79 79 79 80 80 80 80 80 81 81 81 81 81 81 81 80 80 81 81 81 80 81 81 81 81 80 80 80 83 80
90 84 84 80 80 80 80 79 79 78 79 79 79 79 79 80 80 80 80 80 81 81 81 81 81 81 81 81 80 80 81 81 80 80 81 81 85 81 81 81 81 80 80
90 86 84 80 80 80 79 79 79 79 79 79 79 79 79 79 79 80 80 80 81 81 81 81 81 81 81 81 81 81 81 80 80 80 81 86 92 81 81 81 81 80 80
89 89 82 80 79 80 79 79 79 79 79 79 79 79 79 79 79 79 80 80 81 81 81 81 81 81 81 81 81 80 80 80 80 81 83 87 87 84 82 81 81 81 80
92 88 80 79 79 79 79 79 79 79 79 79 79 79 79 79 79 79 80 80 81 81 81 81 80 80 81 81 80 79 79 79 79 83 86 87 87 82 82 81 81 80 80
93 85 82 79 79 80 80 79 79 79 79 79 79 79 79 79 79 79 80 80 81 81 81 80 80 80 80 79 79 79 78 79 79 82 84 84 83 81 82 81 80 79 79
89 85 82 80 79 79 79 79 78 78 78 78 79 79 79 78 79 79 80 80 80 80 80 80 80 80 79 78 78 78 78 79 82 81 83 86 79 81 81 80 79 79 79
89 86 83 82 80 79 78 78 78 78 78 78 78 78 78 78 78 79 79 80 80 80 80 80 79 79 78 78 78 78 78 79 78 80 85 85 80 81 81 80 79 79 79
90 87 85 83 83 82 80 78 78 78 78 78 78 78 78 78 78 78 78 79 80 80 79 79 79 78 78 78 77 78 78 79 78 81 85 81 80 81 81 80 79 79 78
91 88 89 87 85 84 82 79 78 78 78 78 78 78 77 81 80 80 81 79 79 79 79 79 78 78 78 78 78 78 78 80 85 88 87 80 81 81 81 79 79 78 78
87 89 88 88 86 87 86 79 81 82 81 81 81 78 81 83 82 86 82 79 79 79 79 79 78 78 79 81 87 79 80 83 88 88 82 80 80 81 80 79 79 78 78
90 91 90 85 85 88 86 83 84 83 83 83 82 79 79 86 84 84 82 82 79 79 81 81 80 79 82 86 86 86 87 90 89 89 83 80 80 80 80 79 78 78 77
91 90 90 88 84 85 84 86 85 85 85 85 83 81 83 83 81 83 85 84 81 82 84 83 85 85 86 86 86 86 87 85 85 84 85 80 78 79 78 78 78 77 77
89 90 90 88 84 82 81 86 86 85 86 86 84 84 84 82 81 84 83 83 82 83 85 84 83 83 84 86 86 85 84 84 85 85 81 77 73 75 78 78 77 77 77
86 88 89 88 84 84 82 83 83 83 84 86 84 85 86 83 81 83 82 81 82 83 82 83 82 80 80 82 81 83 82 83 83 83 79 74 74 76 77 78 78 78 77
84 85 85 86 86 83 85 84 84 85 87 84 84 84 86 83 83 82 81 82 82 82 84 82 82 80 80 81 79 80 81 81 82 80 79 74 73 75 76 76 77 77 76
84 81 84 89 87 84 83 84 85 86 85 84 84 83 86 85 83 82 83 83 82 81 79 79 79 77 78 77 77 78 79 80 80 79 78 77 74 74 75 76 76 76 75
83 81 80 83 84 83 82 83 83 83 83 83 83 83 85 86 87 83 83 81 80 78 79 78 77 77 75 76 78 77 77 77 77 82 76 73 72 72 71 76 75 75 75
81 81 81 83 81 81 82 82 82 82 83 83 83 84 85 86 87 82 78 77 77 78 77 76 75 76 75 75 78 78 74 76 72 73 74 75 72 72 71 71 69 71 74
78 78 80 80 80 81 81 81 79 78 80 82 83 83 80 79 80 79 78 78 78 76 74 74 74 75 74 73 71 70 73 74 72 72 72 70 71 72 71 70 67 67 68
77 78 79 79 79 80 82 81 80 79 80 80 77 76 78 80 78 78 76 76 74 74 72 71 71 70 72 70 66 66 62 66 69 71 70 71 69 71 71 71 69 67 66
76 78 79 79 78 80 82 81 80 81 80 77 74 76 77 76 75 74 73 74 74 73 70 69 68 66 66 68 67 64 59 57 63 66 67 69 67 68 68 69 68 68 66
76 80 81 80 79 82 82 81 78 77 76 73 73 73 73 74 74 73 72 71 70 69 67 67 68 67 65 64 66 68 67 65 58 57 65 66 67 68 67 67 66 67 66
80 82 80 80 80 82 81 81 80 77 73 73 72 70 69 70 71 71 70 69 67 68 67 66 65 64 65 64 63 64 64 65 64 60 56 62 64 66 66 66 66 65 65
84 83 80 79 79 82 82 80 78 76 74 73 72 71 71 71 70 70 70 68 68 67 67 66 65 64 64 64 65 65 63 61 60 59 58 60 60 63 66 65 65 64 64